Portada
METAR-TAF:

METAR-TAF

Aeroports :

Cheraw, Carolina del Sud, Estats Units d'Amèrica

latitud: 34-42-46N, longitud: 079-57-25W, altitud: 73 m

Observació

L'informe es va fer fa 21 minuts, a les 21:35 UTC
Vent 3 kt del Nord-Oest
Temperatura 5°C
Humitat 81%
Pressió 1026 hPa
Visibilitat: 4.8 km
plugim

METAR: KCQW 142135Z AUTO 32003KT 3SM -DZ 05/02 A3031 RMK AO2

Hora: 16:56 (21:56 UTC)


TAF: manca

Observacions i pronòstics meteorològics de més de 4000 aeroports (METAR i TAF).

Les estacions disponibles són els punts grocs i vermells al mapa.

Posi el ratolí al punt desitjat per veure el nom de l'estació.

Feu clic per veure les observacions i els pronòstics meteorològics.

Per canviar el mapa: feu clic els botons verds amb una creu de color negre per apropar; al botó verd amb un guió per allunyar la imatge; o en les fletxes verdes per a mapes adjacents.


METAR-TAF: